XE2RCS-1 Weather Reports


time (UTC)temp
C
wind
direction
speed
KPH
gust
KPH
rain 1hr
cm
rain 24hr
cm
rain mn
cm
humidity
%
barometer
mb
20260510204342 28 350 17.7 0.0 0.00 0.00 0.00 16 1010.0
20260510203341 29 350 17.7 0.0 0.00 0.00 0.00 15 1011.0
20260510202341 29 350 17.7 0.0 0.00 0.00 0.00 15 1011.0
20260510201340 29 350 17.7 0.0 0.00 0.00 0.00 15 1011.0
20260510200339 30 350 17.7 0.0 0.00 0.00 0.00 14 1011.0
20260510195339 30 350 17.7 0.0 0.00 0.00 0.00 14 1011.0
20260510194338 29 350 17.7 0.0 0.00 0.00 0.00 14 1011.0
20260510193338 30 350 17.7 0.0 0.00 0.00 0.00 13 1011.0
20260510192337 30 350 17.7 0.0 0.00 0.00 0.00 14 1011.0
20260510191336 30 350 17.7 0.0 0.00 0.00 0.00 13 1011.0
20260510190336 30 350 17.7 0.0 0.00 0.00 0.00 13 1011.0
20260510185335 30 350 17.7 0.0 0.00 0.00 0.00 13 1011.0
20260510184334 29 350 17.7 0.0 0.00 0.00 0.00 12 1011.0
20260510183334 29 350 17.7 0.0 0.00 0.00 0.00 13 1011.0
20260510182333 28 350 17.7 0.0 0.00 0.00 0.00 14 1012.0
20260510181331 28 350 17.7 0.0 0.00 0.00 0.00 15 1012.0
20260510180331 29 267 6.4 17.7 0.00 0.00 0.00 16 1012.0
20260510175330 28 267 6.4 17.7 0.00 0.00 0.00 17 1012.0
20260510174330 28 267 6.4 17.7 0.00 0.00 0.00 17 1012.0
20260510173329 28 267 6.4 17.7 0.00 0.00 0.00 16 1012.0
20260510172328 28 267 6.4 17.7 0.00 0.00 0.00 16 1012.0
20260510171328 28 267 6.4 17.7 0.00 0.00 0.00 14 1012.0
20260510170327 28 267 6.4 17.7 0.00 0.00 0.00 13 1012.0
20260510165326 28 267 6.4 17.7 0.00 0.00 0.00 13 1012.0
20260510164326 27 163 4.8 6.4 0.00 0.00 0.00 16 1012.0
20260510163325 27 163 4.8 6.4 0.00 0.00 0.00 17 1012.0
20260510162324 27 163 4.8 6.4 0.00 0.00 0.00 19 1013.0
20260510161324 27 163 4.8 6.4 0.00 0.00 0.00 21 1013.0
20260510160323 27 163 4.8 6.4 0.00 0.00 0.00 25 1013.0
20260510155323 27 163 4.8 6.4 0.00 0.00 0.00 30 1013.0
20260510154322 26 163 4.8 6.4 0.00 0.00 0.00 32 1014.0
20260510153322 26 163 4.8 6.4 0.00 0.00 0.00 33 1014.0
20260510152321 26 163 4.8 6.4 0.00 0.00 0.00 35 1017.0
20260510151320 25 163 4.8 6.4 0.00 0.00 0.00 42 1017.0
20260510150319 25 163 4.8 6.4 0.00 0.00 0.00 37 1015.0
20260510145319 24 163 4.8 6.4 0.00 0.00 0.00 41 1015.0
20260510144318 23 163 4.8 6.4 0.00 0.00 0.00 38 1015.0
20260510143317 23 163 4.8 6.4 0.00 0.00 0.00 38 1015.0
20260510142317 23 163 4.8 6.4 0.00 0.00 0.00 44 1017.0
20260510141317 23 163 4.8 6.4 0.00 0.00 0.00 46 1017.0
20260510140316 22 163 4.8 6.4 0.00 0.00 0.00 48 1017.0
20260510135315 22 163 4.8 6.4 0.00 0.00 0.00 50 1015.0
20260510134314 21 163 4.8 6.4 0.00 0.00 0.00 46 1014.0
20260510133314 19 210 14.5 0.0 0.00 0.00 0.00 72 1016.0
20260510132313 18 210 14.5 0.0 0.00 0.00 0.00 73 1017.0
20260510131312 18 210 14.5 0.0 0.00 0.00 0.00 73 1017.0
20260510130312 19 210 9.7 0.0 0.00 0.00 0.00 74 1015.0
20260510125311 17 210 9.7 0.0 0.00 0.00 0.00 77 1015.0
20260510124310 17 210 9.7 0.0 0.00 0.00 0.00 77 1015.0
20260510123310 16 210 9.7 0.0 0.00 0.00 0.00 76 1015.0
20260510122309 16 210 9.7 0.0 0.00 0.00 0.00 73 1016.0
20260510121309 16 130 4.8 4.8 0.00 0.00 0.00 65 1016.0
20260510120308 16 130 4.8 4.8 0.00 0.00 0.00 67 1016.0
20260510114647 16 130 4.8 4.8 0.00 0.00 0.00 72 1014.0
20260510113646 16 130 4.8 4.8 0.00 0.00 0.00 73 1014.0
20260510112645 16 138 6.4 6.4 0.00 0.00 0.00 74 1014.0
20260510111645 16 138 6.4 6.4 0.00 0.00 0.00 74 1015.0
20260510110647 16 138 6.4 6.4 0.00 0.00 0.00 73 1015.0
20260510105644 16 138 6.4 6.4 0.00 0.00 0.00 74 1013.0
20260510104643 17 139 4.8 6.4 0.00 0.00 0.00 75 1012.0
20260510103642 17 139 4.8 6.4 0.00 0.00 0.00 75 1012.0
20260510102642 17 139 4.8 6.4 0.00 0.00 0.00 73 1014.0
20260510101641 16 139 4.8 6.4 0.00 0.00 0.00 74 1015.0
20260510100640 16 139 4.8 6.4 0.00 0.00 0.00 74 1015.0
20260510095640 17 139 4.8 6.4 0.00 0.00 0.00 73 1013.0
20260510094639 17 139 4.8 6.4 0.00 0.00 0.00 73 1012.0
20260510093639 17 139 4.8 6.4 0.00 0.00 0.00 71 1012.0
20260510092638 17 37 4.8 4.8 0.00 0.00 0.00 72 1013.0
20260510091637 17 37 4.8 4.8 0.00 0.00 0.00 71 1015.0
20260510090636 17 37 4.8 4.8 0.00 0.00 0.00 72 1013.0
20260510085636 17 37 4.8 4.8 0.00 0.00 0.00 72 1013.0
20260510084635 17 37 4.8 4.8 0.00 0.00 0.00 72 1013.0
20260510083635 17 37 4.8 4.8 0.00 0.00 0.00 75 1013.0
20260510082634 17 37 4.8 4.8 0.00 0.00 0.00 71 1015.0
20260510081633 17 37 4.8 4.8 0.00 0.00 0.00 71 1015.0
20260510080633 17 37 4.8 4.8 0.00 0.00 0.00 71 1015.0
20260510075632 17 37 4.8 4.8 0.00 0.00 0.00 71 1013.0
20260510074631 17 37 4.8 4.8 0.00 0.00 0.00 72 1012.0
20260510073631 17 37 4.8 4.8 0.00 0.00 0.00 69 1012.0
20260510072630 17 22 4.8 3.2 0.00 0.00 0.00 70 1013.0
20260510071629 18 22 4.8 3.2 0.00 0.00 0.00 71 1014.0
20260510070629 18 30 37.0 0.0 0.00 0.00 0.00 74 1013.0
20260510065628 18 30 37.0 0.0 0.00 0.00 0.00 74 1013.0
20260510064628 18 30 37.0 0.0 0.00 0.00 0.00 75 1013.0
20260510063627 18 30 37.0 0.0 0.00 0.00 0.00 76 1013.0
20260510062626 18 30 37.0 0.0 0.00 0.00 0.00 76 1011.0
20260510061626 18 30 37.0 0.0 0.00 0.00 0.00 76 1011.0
20260510060625 18 30 37.0 0.0 0.00 0.00 0.00 76 1011.0
20260510055624 19 30 37.0 0.0 0.00 0.00 0.00 75 1013.0
20260510054624 19 30 37.0 0.0 0.00 0.00 0.00 75 1013.0
20260510053623 19 30 37.0 0.0 0.00 0.00 0.00 75 1013.0
20260510052623 20 30 37.0 0.0 0.00 0.00 0.00 74 1016.0
20260510051622 20 30 37.0 0.0 0.00 0.00 0.00 73 1016.0
20260510050621 20 30 37.0 0.0 0.00 0.00 0.00 73 1014.0
20260510045621 20 30 37.0 0.0 0.00 0.00 0.00 73 1014.0
20260510044620 20 30 37.0 0.0 0.00 0.00 0.00 73 1013.0
20260510043619 20 30 37.0 0.0 0.00 0.00 0.00 73 1013.0
20260510042618 20 30 37.0 0.0 0.00 0.00 0.00 73 1012.0
20260510041618 20 30 37.0 0.0 0.00 0.00 0.00 73 1015.0
20260510040617 20 30 37.0 0.0 0.00 0.00 0.00 73 1013.0
20260510035617 20 30 37.0 0.0 0.00 0.00 0.00 73 1013.0
20260510034616 20 30 37.0 0.0 0.00 0.00 0.00 72 1013.0
20260510033615 20 30 37.0 0.0 0.00 0.00 0.00 81 1015.0
20260510032614 20 30 37.0 0.0 0.00 0.00 0.00 81 1015.0
20260510031614 20 30 37.0 0.0 0.00 0.00 0.00 80 1015.0
20260510030613 21 30 37.0 0.0 0.00 0.00 0.00 77 1015.0
20260510025612 21 30 37.0 0.0 0.00 0.00 0.00 69 1013.0
20260510024612 21 30 37.0 0.0 0.00 0.00 0.00 67 1013.0
20260510023611 21 30 37.0 0.0 0.00 0.00 0.00 66 1013.0
20260510022611 22 30 37.0 0.0 0.00 0.00 0.00 77 1012.0
20260510021610 22 30 37.0 0.0 0.00 0.00 0.00 76 1012.0
20260510020610 22 30 37.0 0.0 0.00 0.00 0.00 73 1012.0
20260510015609 22 30 37.0 0.0 0.00 0.00 0.00 63 1012.0
20260510014608 22 30 37.0 0.0 0.00 0.00 0.00 59 1012.0
20260510013608 23 30 37.0 0.0 0.00 0.00 0.00 57 1012.0
20260510012607 25 30 37.0 0.0 0.00 0.00 0.00 44 1011.0
20260510011606 25 30 37.0 0.0 0.00 0.00 0.00 44 1011.0
20260510010606 26 300 29.0 0.0 0.00 0.00 0.00 43 1011.0
20260510005605 25 300 29.0 0.0 0.00 0.00 0.00 12 1011.0
20260510004604 26 300 29.0 0.0 0.00 0.00 0.00 12 1011.0
20260510003604 27 300 29.0 0.0 0.00 0.00 0.00 12 1011.0
20260510002603 28 300 29.0 0.0 0.00 0.00 0.00 12 1008.0
20260510001602 28 300 29.0 0.0 0.00 0.00 0.00 12 1008.0
20260510000601 28 300 29.0 0.0 0.00 0.00 0.00 12 1008.0
20260509235601 28 300 29.0 0.0 0.00 0.00 0.00 10 1008.0
20260509234601 28 300 29.0 0.0 0.00 0.00 0.00 10 1008.0
20260509233600 28 300 29.0 0.0 0.00 0.00 0.00 10 1008.0
20260509232559 28 300 29.0 0.0 0.00 0.00 0.00 11 1008.0
20260509231558 28 300 29.0 0.0 0.00 0.00 0.00 11 1008.0
20260509230558 28 300 29.0 0.0 0.00 0.00 0.00 12 1008.0
20260509225557 29 300 29.0 0.0 0.00 0.00 0.00 13 1008.0
20260509224556 28 300 30.6 0.0 0.00 0.00 0.00 16 1008.0
20260509223556 28 300 30.6 0.0 0.00 0.00 0.00 16 1008.0
20260509222555 28 300 30.6 0.0 0.00 0.00 0.00 16 1008.0
20260509221554 28 300 30.6 0.0 0.00 0.00 0.00 17 1008.0
20260509220554 28 300 30.6 0.0 0.00 0.00 0.00 16 1008.0
20260509215553 28 270 29.0 0.0 0.00 0.00 0.00 15 1008.0
20260509214553 28 270 29.0 0.0 0.00 0.00 0.00 15 1008.0
20260509213552 28 270 29.0 0.0 0.00 0.00 0.00 16 1008.0
20260509212551 28 270 29.0 0.0 0.00 0.00 0.00 16 1009.0
20260509211551 28 270 29.0 0.0 0.00 0.00 0.00 17 1009.0
20260509210550 28 10 12.9 0.0 0.00 0.00 0.00 17 1009.0
20260509205549 28 10 12.9 0.0 0.00 0.00 0.00 17 1009.0